Baltimore, MD

4:04 AM EST on February 07, 2016 (GMT -0500)
Baltimore-Washington International

Weather History for KBWI - December, 2013

Change the Weather History Date:

Friday, December 6, 2013

  Actual Average Record
Temperature  
Mean Temperature 52 °F 39 °F  
Max Temperature 65 °F 48 °F 77 °F (1998)
Min Temperature 38 °F 31 °F 13 °F (2002)
Degree Days  
Heating Degree Days 13 26  
Month to date heating degree days 110 149  
Since 1 July heating degree days 1035 1053  
Cooling Degree Days 0 0  
Month to date cooling degree days 0 0  
Year to date cooling degree days 1339 1164  
Moisture  
Dew Point 46 °F    
Average Humidity 91    
Maximum Humidity 96    
Minimum Humidity 86    
Precipitation  
Precipitation 0.90 in 0.12 in 1.64 in (1936)
Month to date precipitation 0.90 0.71  
Year to date precipitation 38.56 39.22  
Snow  
Snow 0.00 in 0.10 in 5.90 in (1910)
Month to date snowfall 0.0 0.4  
Since 1 July snowfall T 0.8  
Snow Depth 0.00 in    
Sea Level Pressure  
Sea Level Pressure 30.03 in    
Wind  
Wind Speed 8 mph (North)    
Max Wind Speed 18 mph    
Max Gust Speed 25 mph    
Visibility 4 miles    
Events Rain    
T = Trace of Precipitation, MM = Missing Value Source: NWS Daily Summary

Daily Weather History Graph

Daily Weather History Graph

Search for Another Location

Airport or City:

Trip Planner

Search our weather history database for the weather conditions in past years. The results will help you decide how hot, cold, wet, or windy it might be!

Date:

Astronomy

Dec. 06, 2013 Rise Set
Actual Time 7:11 AM EST 4:43 PM EST
Civil Twilight 6:42 AM EST 5:13 PM EST
Nautical Twilight 6:08 AM EST 5:46 PM EST
Astronomical Twilight 5:36 AM EST 6:19 PM EST
Moon 10:16 AM EST (12/6) 9:11 PM EST (12/6)
Length of Visible Light 10h 31m
Length of Day
9h 31m
Waxing Crescent, 19% of the Moon is Illuminated
Dec 6
Waxing Crescent
Dec 9
First Quarter
Dec 17
Full
Dec 25
Last Quarter
Jan 1
New

Hourly Weather History & Observations

Time (EST) Temp. Windchill Dew Point Humidity Pressure Visibility Wind Dir Wind Speed Gust Speed Precip Events Conditions
12:36 AM 64.4 °F - 60.8 °F 88% 29.92 in 10.0 mi SW 9.2 mph 17.3 mph 0.00 in Rain Light Rain
12:54 AM 64.9 °F - 61.0 °F 87% 29.91 in 10.0 mi SSW 8.1 mph - 0.00 in Rain Light Rain
1:54 AM 64.9 °F - 61.0 °F 87% 29.91 in 10.0 mi SSW 6.9 mph - 0.00 in   Overcast
2:54 AM 64.0 °F - 61.0 °F 90% 29.89 in 6.0 mi SSW 6.9 mph - 0.01 in Rain Light Rain
3:10 AM 64.4 °F - 60.8 °F 88% 29.89 in 10.0 mi SW 6.9 mph - 0.00 in   Overcast
3:54 AM 64.0 °F - 62.1 °F 93% 29.88 in 6.0 mi SSW 8.1 mph - 0.03 in Rain Light Rain
4:54 AM 64.0 °F - 62.1 °F 93% 29.89 in 7.0 mi SSW 5.8 mph - 0.00 in   Overcast
5:54 AM 64.9 °F - 62.1 °F 90% 29.89 in 6.0 mi SSW 8.1 mph - 0.00 in   Overcast
6:17 AM 64.4 °F - 62.6 °F 94% 29.90 in 6.0 mi SW 6.9 mph - 0.00 in   Light Drizzle
6:48 AM 64.4 °F - 62.6 °F 94% 29.91 in 1.0 mi SW 4.6 mph - 0.00 in   Light Drizzle
6:54 AM 64.0 °F - 62.1 °F 93% 29.91 in 1.0 mi SW 5.8 mph - 0.00 in   Light Drizzle
7:41 AM 59.0 °F - 57.2 °F 94% 29.96 in 1.2 mi North 13.8 mph 25.3 mph 0.02 in Rain Light Rain
7:54 AM 55.0 °F - 53.1 °F 93% 29.97 in 2.0 mi NNW 15.0 mph 21.9 mph 0.02 in   Light Drizzle
8:01 AM 53.6 °F - 51.8 °F 94% 29.98 in 4.0 mi NNW 11.5 mph 21.9 mph 0.00 in   Light Drizzle
8:09 AM 53.6 °F - 50.0 °F 88% 29.98 in 4.0 mi NNW 11.5 mph 20.7 mph 0.00 in   Light Drizzle
8:23 AM 53.6 °F - 50.0 °F 88% 29.99 in 2.0 mi NNW 9.2 mph 18.4 mph 0.00 in   Light Drizzle
8:41 AM 51.8 °F - 48.2 °F 88% 30.02 in 1.5 mi NNW 11.5 mph - 0.00 in   Light Drizzle
8:54 AM 51.1 °F - 48.9 °F 92% 30.03 in 1.5 mi NW 9.2 mph - 0.00 in   Light Drizzle
9:12 AM 50.0 °F - 46.4 °F 87% 30.05 in 2.5 mi NNW 12.7 mph 24.2 mph 0.00 in   Light Drizzle
9:21 AM 50.0 °F - 46.4 °F 87% 30.05 in 1.8 mi North 9.2 mph 19.6 mph 0.00 in Rain Light Rain
9:33 AM 48.2 °F - 46.4 °F 93% 30.06 in 3.0 mi North 9.2 mph 18.4 mph 0.01 in   Light Drizzle
9:54 AM 48.0 °F - 45.0 °F 89% 30.06 in 7.0 mi North 6.9 mph - 0.01 in   Light Drizzle
10:00 AM 48.2 °F - 44.6 °F 87% 30.06 in 10.0 mi North 6.9 mph - 0.00 in   Overcast
10:54 AM 48.0 °F - 44.1 °F 86% 30.07 in 5.0 mi NNW 4.6 mph - 0.00 in Rain Light Rain
11:54 AM 46.9 °F - 43.0 °F 86% 30.05 in 3.0 mi North 9.2 mph - 0.03 in Rain Rain
12:03 PM 46.4 °F 41.9 °F 42.8 °F 87% 30.04 in 2.0 mi NNW 9.2 mph 19.6 mph 0.03 in Rain Rain
12:06 PM 46.4 °F 42.4 °F 42.8 °F 87% 30.06 in 1.5 mi NW 8.1 mph 19.6 mph 0.05 in Rain Heavy Rain
12:18 PM 46.4 °F 42.9 °F 42.8 °F 87% 30.04 in 2.0 mi North 6.9 mph - 0.15 in Rain Rain
12:24 PM 46.4 °F 42.9 °F 42.8 °F 87% 30.04 in 3.0 mi Variable 6.9 mph - 0.16 in Rain Rain
12:43 PM 46.4 °F 43.5 °F 42.8 °F 87% 30.03 in 8.0 mi NNE 5.8 mph - 0.19 in Rain Light Rain
12:54 PM 46.9 °F - 43.0 °F 86% 30.03 in 10.0 mi North 8.1 mph - 0.19 in   Overcast
1:10 PM 46.4 °F 43.5 °F 42.8 °F 87% 30.04 in 10.0 mi Variable 5.8 mph - 0.00 in Rain Light Rain
1:54 PM 46.0 °F 42.5 °F 42.1 °F 86% 30.03 in 10.0 mi NNW 6.9 mph - 0.00 in   Overcast
2:18 PM 46.4 °F 42.9 °F 42.8 °F 87% 30.05 in 2.0 mi North 6.9 mph - 0.00 in Rain Rain
2:25 PM 46.4 °F 43.5 °F 42.8 °F 87% 30.05 in 3.0 mi NNW 5.8 mph - 0.02 in Rain Light Rain
2:54 PM 46.0 °F 41.0 °F 42.1 °F 86% 30.01 in 3.0 mi NE 10.4 mph - 0.02 in Rain Light Rain
3:13 PM 44.6 °F 40.7 °F 42.8 °F 93% 30.02 in 2.0 mi Variable 6.9 mph - 0.02 in Rain Light Rain
3:17 PM 44.6 °F 41.4 °F 42.8 °F 93% 30.03 in 1.8 mi NNE 5.8 mph - 0.03 in Rain Light Rain
3:25 PM 44.6 °F 40.7 °F 42.8 °F 93% 30.04 in 3.0 mi North 6.9 mph - 0.03 in Rain Light Rain
3:34 PM 44.6 °F 40.2 °F 41.0 °F 87% 30.05 in 2.5 mi North 8.1 mph - 0.05 in Rain Rain
3:37 PM 44.6 °F 40.2 °F 41.0 °F 87% 30.04 in 1.8 mi North 8.1 mph - 0.06 in Rain Rain
3:54 PM 44.1 °F 40.8 °F 41.0 °F 89% 30.05 in 2.5 mi North 5.8 mph - 0.16 in Rain Light Rain
4:25 PM 44.6 °F 43.1 °F 42.8 °F 93% 30.06 in 1.5 mi North 3.5 mph - 0.03 in Rain Light Rain
4:40 PM 44.6 °F 42.2 °F 42.8 °F 93% 30.05 in 2.0 mi North 4.6 mph - 0.04 in Rain Light Rain
4:54 PM 44.1 °F 41.5 °F 42.1 °F 93% 30.04 in 3.0 mi Variable 4.6 mph - 0.05 in Rain Light Rain
4:57 PM 44.6 °F 41.4 °F 42.8 °F 93% 30.04 in 3.0 mi North 5.8 mph - 0.01 in Rain Light Rain
5:54 PM 44.1 °F 39.5 °F 42.1 °F 93% 30.08 in 3.0 mi North 8.1 mph - 0.03 in Rain Light Rain
6:01 PM 42.8 °F 39.3 °F 41.0 °F 93% 30.07 in 2.5 mi North 5.8 mph - 0.01 in Rain Rain
6:11 PM 42.8 °F 38.0 °F 42.8 °F 100% 30.08 in 3.0 mi North 8.1 mph - 0.02 in Rain Light Rain
6:19 PM 42.8 °F 38.6 °F 41.0 °F 93% 30.08 in 3.0 mi North 6.9 mph - 0.03 in Rain Light Rain
6:54 PM 43.0 °F 39.5 °F 41.0 °F 93% 30.07 in 3.0 mi NNE 5.8 mph - 0.06 in Rain Light Rain
7:08 PM 42.8 °F 38.0 °F 39.2 °F 87% 30.07 in 5.0 mi NNE 8.1 mph - 0.01 in Rain Light Rain
7:44 PM 42.8 °F 38.0 °F 39.2 °F 87% 30.11 in 3.0 mi NNW 8.1 mph - 0.05 in Rain Rain
7:54 PM 42.1 °F 37.7 °F 39.9 °F 92% 30.11 in 4.0 mi North 6.9 mph - 0.07 in Rain Light Rain
8:43 PM 41.0 °F 33.9 °F 37.4 °F 87% 30.10 in 8.0 mi NNE 12.7 mph 23.0 mph 0.03 in Rain Light Rain
8:54 PM 41.0 °F 35.2 °F 37.0 °F 86% 30.12 in 10.0 mi NNE 9.2 mph 19.6 mph 0.03 in   Overcast
9:14 PM 39.2 °F 33.0 °F 37.4 °F 93% 30.10 in 3.0 mi NE 9.2 mph - 0.02 in Rain Rain
9:34 PM 39.2 °F 32.5 °F 37.4 °F 93% 30.11 in 5.0 mi NNE 10.4 mph - 0.03 in Rain Light Rain
9:49 PM 39.2 °F 33.6 °F 35.6 °F 87% 30.12 in 2.0 mi North 8.1 mph - 0.06 in Rain Heavy Rain
9:54 PM 39.0 °F 33.4 °F 36.0 °F 89% 30.14 in 2.0 mi North 8.1 mph - 0.09 in Rain Rain
9:57 PM 39.2 °F 33.0 °F 37.4 °F 93% 30.15 in 2.5 mi NNW 9.2 mph - 0.01 in Rain Rain
10:14 PM 37.4 °F 30.3 °F 35.6 °F 93% 30.17 in 3.0 mi NNW 10.4 mph 16.1 mph 0.03 in Rain Light Rain
10:36 PM 37.4 °F 31.4 °F 35.6 °F 93% 30.15 in 3.0 mi NNE 8.1 mph - 0.07 in Rain Light Rain
10:54 PM 37.9 °F 30.5 °F 36.0 °F 93% 30.12 in 6.0 mi NE 11.5 mph 19.6 mph 0.10 in Rain Light Rain
11:28 PM 37.4 °F 32.8 °F 35.6 °F 93% 30.16 in 8.0 mi North 5.8 mph - 0.00 in Rain Light Rain
11:54 PM 37.9 °F 31.5 °F 34.0 °F 86% 30.13 in 7.0 mi NNE 9.2 mph - 0.00 in Rain Light Rain